Regional Weather Roundup
Issued by NWS

Home | Current Version | Previous Version | Graphics & Text | Print | Product List | Glossary On
Versions: 1 2 3 4 5 6 7 8 9 10 11 12 13 14 15 16 17 18 19 20 21 22 23 24 25 26 27 28 29 30 31 32 33 34 35 36 37 38 39 40 41 42 43 44 45 46 47 48 49 50
000
ASUS45 KBOI 241210
RWRID

IDAHO REGIONAL WEATHER ROUNDUP
NATIONAL WEATHER SERVICE BOISE ID
600 AM MDT SUN MAY 24 2015

NOTE: "FAIR" INDICATES FEW OR NO CLOUDS BELOW 12000 FEET
WITH NO SIGNIFICANT WEATHER AND/OR OBSTRUCTIONS TO VISIBILITY

IDZ012-014-241300-
SOUTHWEST IDAHO


CITY           SKY/WX    TMP DP  RH WIND       PRES   REMARKS
BOISE          MOCLDY    55  50  83 S10       29.94R
CALDWELL       PTCLDY    54  45  71 NE5       29.94S
MOUNTAIN HOME  CLOUDY    53  48  83 E9        29.93F
$$

IDZ016-017-241300-
SOUTHCENTRAL IDAHO


CITY           SKY/WX    TMP DP  RH WIND       PRES   REMARKS
BURLEY         CLOUDY    47  46  97 CALM      29.97S
JEROME         CLOUDY    49  47  93 NE5       29.98F
TWIN FALLS     FOG       48  46  93 S5        29.96S VSB 1
$$

IDZ019>023-241300-
SOUTHEAST IDAHO


CITY           SKY/WX    TMP DP  RH WIND       PRES   REMARKS
IDAHO FALLS    FOG       42  41  96 NE3       29.98S VSB 1/4
POCATELLO      PTCLDY    42  42 100 SW5       29.98S
REXBURG        PTCLDY    40  38  93 CALM      29.98R
$$

IDZ006-010-011-018-031-032-241300-
CENTRAL IDAHO MOUNTAINS


CITY           SKY/WX    TMP DP  RH WIND       PRES   REMARKS
MCCALL         CLEAR     47  39  74 N5        30.01S
HAILEY         MOCLDY    45  43  93 NW7       30.01F
STANLEY          N/A     37  34  89 CALM      30.07S
SALMON         CLOUDY    52  46  82 CALM      30.03S
CHALLIS        CLOUDY    49  40  71 NW6       30.02F
$$

IDZ002-004-006-007-026-241300-
NORTHERN IDAHO


CITY           SKY/WX    TMP DP  RH WIND       PRES   REMARKS
LEWISTON       CLEAR     56  53  90 E3        29.99S
LOWELL           N/A     52  49  89 NW5       30.04S
COEUR D`ALENE  PTCLDY    52  43  71 CALM      30.01S
MULLAN PASS    PTCLDY    46  34  62 CALM      30.11S
$$



USA.gov is the U.S. government's official web portal to all federal, state and local government web resources and services.